COSMOS 1275 DEB

Satellite information

Favourite Embed

Satellite Type and Status

DEBRISIN ORBIT

Key statistics

Satellite COSMOS 1275 DEB at a glance.

Uptime

16104

Days in orbit

Revolutions

≈ 13.8

Per day

Orbit

LEO

Low Earth Orbit

Inclination

82.9

Latest

Satellite identification and parameters

Extended collection of information and parameters for COSMOS 1275 DEB.

Object identification

Identified? True

Debris? True

Object name: COSMOS 1275 DEB

International designator: 1981-053EK

Object number (NORAD): 12964

Object ID (CCSDS): 12964

Country: COMMONWEALTH OF INDEPENDENT STATES (CIS)

Current information (Y/N): Y

RCS size: SMALL

Orbital parameters

Period: 104.326 minutes

Inclination: 82.9454 deg

SMA: 7340.984 km

Apoapsis: 991.806 km

Periapsis: 933.891 km

RAAN: 14.2725 deg

Eccentricy: 0.0039446

Argument of periapsis: 30.2137 deg

Mean anomaly: 358.6204 deg

Mean motion: 13.80293309 rev/day

Mean motion (dot): 0.00000042 rev/day2

B* drag term: 0.000025312 1/REarth

Two-line elements (TLE)

Creation date: July 6, 2025, 6:05 p.m.

Reference frame: TEME

Reference center: EARTH

Epoch: July 6, 2025, 12:24 p.m. UTC

TLE line 0: 0 COSMOS 1275 DEB

TLE line 1: 1 12964U 81053EK 25187.51671606 .00000042 00000-0 25312-4 0 9997

TLE line 2: 2 12964 82.9454 14.2725 0039446 30.2137 358.6204 13.80293309201132

Live tracking on map

Real-time ground track for satellite COSMOS 1275 DEB.

In-orbit conjunctions

A list of the most updated potential collisions computed for object COSMOS 1275 DEB.

Target Orbit TCA Probability of collision Miss distance Type
THOR ABLESTAR DEB LEO 2025-04-05 11:09:34 0.0001565633 95.0 (m) DEBRIS
ELECTRON KICK STAGE R/B SSO 2024-11-15 14:51:47 0.0003474464 593.0 (m) ROCKET BODY

Associated space launch

Navigation satellite providing location information for the Tsiklon-B navigation system

COSMOS 1275 DEB was lifted into orbit during the mission ‘Kosmos-3M | Parus 27’, on board a Kosmos-3M space rocket.

The launch took place on June 4, 1981, 3:41 p.m. from 132/2.

For more information about the launch, click the button.

Launch to space Kosmos-3M | Parus 27
Kosmos-3M | Parus 27

Agency: N/A

Status: Launch Successful

Launch date: June 4, 1981, 3:41 p.m. UTC

Rocket: Kosmos-3M

Launch pad: 132/2

Location: Plesetsk Cosmodrome, Russian Federation

...

Latest news about this satellite

There are no fresh news available about this satellite. Check back as we update our databases every day.


Newsletter sign-up

Weekly statistics, charts and insights to help you stay on top of the space industry.